Time,TemperatureF,DewpointF,PressureIn,WindDirection,WindDirectionDegrees,WindSpeedMPH,WindSpeedGustMPH,Humidity,HourlyPrecipIn,Conditions,Clouds,dailyrainin,SolarRadiationWatts/m^2,SoftwareType,DateUTC
2013-03-24 00:02:00,25.0,18.0,30.18,SSE,163,4.0,7.0,75,-99.99,,,-99.99,-0.100000,,2013-03-24 04:02:00,
2013-03-24 00:12:00,25.0,18.0,30.19,SSE,152,6.0,7.0,75,-99.99,,,-99.99,-0.300000,,2013-03-24 04:12:00,
2013-03-24 00:22:00,25.0,19.0,30.19,SE,146,7.0,9.0,75,-99.99,,,-99.99,0.000000,,2013-03-24 04:22:00,
2013-03-24 00:32:00,25.0,19.0,30.19,SSE,154,7.0,9.0,76,-99.99,,,-99.99,-0.100000,,2013-03-24 04:32:00,
2013-03-24 00:42:00,25.0,19.0,30.19,SE,141,7.0,11.0,75,-99.99,,,-99.99,-0.100000,,2013-03-24 04:42:00,
2013-03-24 00:52:00,26.0,19.0,30.19,SE,129,7.0,9.0,74,-99.99,,,-99.99,-0.100000,,2013-03-24 04:52:00,
2013-03-24 01:02:00,26.0,18.0,30.19,ESE,123,5.0,8.0,72,-99.99,,,-99.99,0.100000,,2013-03-24 05:02:00,
2013-03-24 01:11:00,26.0,18.0,30.19,East,80,5.0,6.0,74,-99.99,,,-99.99,0.200000,,2013-03-24 05:11:00,
2013-03-24 01:21:00,26.0,18.0,30.19,SE,126,5.0,8.0,72,-99.99,,,-99.99,-0.200000,,2013-03-24 05:21:00,
2013-03-24 01:32:00,26.0,19.0,30.19,ESE,115,4.0,8.0,74,-99.99,,,-99.99,0.000000,,2013-03-24 05:32:00,
2013-03-24 01:41:00,26.0,19.0,30.19,SE,144,4.0,6.0,75,-99.99,,,-99.99,0.000000,,2013-03-24 05:41:00,
2013-03-24 01:51:00,26.0,20.0,30.19,SE,137,7.0,9.0,76,-99.99,,,-99.99,0.000000,,2013-03-24 05:51:00,
2013-03-24 02:01:00,25.0,21.0,30.19,South,186,6.0,7.0,83,-99.99,,,-99.99,-0.100000,,2013-03-24 06:01:00,
2013-03-24 02:11:00,25.0,22.0,30.19,SSE,154,3.0,4.0,88,-99.99,,,-99.99,0.000000,,2013-03-24 06:11:00,
2013-03-24 02:21:00,24.0,22.0,30.19,ESE,108,5.0,8.0,89,-99.99,,,-99.99,0.000000,,2013-03-24 06:21:00,
2013-03-24 02:32:00,24.0,21.0,30.19,ESE,110,9.0,12.0,89,-99.99,,,-99.99,-0.100000,,2013-03-24 06:32:00,
2013-03-24 02:41:00,23.0,20.0,30.19,SE,133,7.0,9.0,88,-99.99,,,-99.99,-0.100000,,2013-03-24 06:41:00,
2013-03-24 02:51:00,22.0,19.0,30.19,ESE,121,5.0,6.0,88,-99.99,,,-99.99,0.000000,,2013-03-24 06:51:00,
2013-03-24 03:01:00,22.0,19.0,30.19,East,86,5.0,7.0,88,-99.99,,,-99.99,-0.100000,,2013-03-24 07:01:00,
2013-03-24 03:11:00,21.0,19.0,30.19,NE,40,6.0,7.0,89,-99.99,,,-99.99,-0.100000,,2013-03-24 07:11:00,
2013-03-24 03:21:00,22.0,19.0,30.19,NE,38,6.0,7.0,89,-99.99,,,-99.99,0.200000,,2013-03-24 07:21:00,
2013-03-24 03:32:00,22.0,19.0,30.19,NE,41,7.0,9.0,89,-99.99,,,-99.99,-0.300000,,2013-03-24 07:32:00,
2013-03-24 03:41:00,22.0,19.0,30.19,ENE,61,6.0,7.0,89,-99.99,,,-99.99,-0.200000,,2013-03-24 07:41:00,
2013-03-24 03:52:00,22.0,19.0,30.19,ENE,69,6.0,6.0,87,-99.99,,,-99.99,0.000000,,2013-03-24 07:52:00,
2013-03-24 04:02:00,22.0,19.0,30.19,ENE,59,5.0,5.0,88,-99.99,,,-99.99,-0.100000,,2013-03-24 08:02:00,
2013-03-24 04:11:00,22.0,19.0,30.19,East,100,5.0,6.0,88,-99.99,,,-99.99,-0.200000,,2013-03-24 08:11:00,
2013-03-24 04:21:00,21.0,18.0,30.19,East,98,6.0,7.0,86,-99.99,,,-99.99,0.200000,,2013-03-24 08:21:00,
2013-03-24 04:31:00,21.0,17.0,30.19,ESE,107,5.0,7.0,86,-99.99,,,-99.99,0.000000,,2013-03-24 08:31:00,
2013-03-24 04:41:00,20.0,17.0,30.19,ENE,72,5.0,6.0,86,-99.99,,,-99.99,-0.100000,,2013-03-24 08:41:00,
2013-03-24 04:51:00,20.0,17.0,30.19,East,91,6.0,7.0,88,-99.99,,,-99.99,0.000000,,2013-03-24 08:51:00,
2013-03-24 05:01:00,21.0,18.0,30.19,East,100,5.0,7.0,89,-99.99,,,-99.99,0.000000,,2013-03-24 09:01:00,
2013-03-24 05:11:00,20.0,18.0,30.19,NE,45,4.0,5.0,89,-99.99,,,-99.99,0.000000,,2013-03-24 09:11:00,
2013-03-24 05:21:00,21.0,18.0,30.18,NE,46,4.0,6.0,90,-99.99,,,-99.99,-0.100000,,2013-03-24 09:21:00,
2013-03-24 05:32:00,21.0,18.0,30.18,ENE,68,4.0,5.0,89,-99.99,,,-99.99,-0.200000,,2013-03-24 09:32:00,
2013-03-24 05:42:00,21.0,18.0,30.18,ESE,123,2.0,3.0,89,-99.99,,,-99.99,0.000000,,2013-03-24 09:42:00,
2013-03-24 05:52:00,21.0,18.0,30.18,ESE,118,2.0,2.0,89,-99.99,,,-99.99,-0.100000,,2013-03-24 09:52:00,
2013-03-24 06:02:00,20.0,18.0,30.18,NNE,16,4.0,5.0,89,-99.99,,,-99.99,0.000000,,2013-03-24 10:02:00,
2013-03-24 06:12:00,20.0,18.0,30.18,NE,34,4.0,4.0,89,-99.99,,,-99.99,-0.100000,,2013-03-24 10:12:00,
2013-03-24 06:22:00,21.0,18.0,30.18,NNE,18,4.0,4.0,89,-99.99,,,-99.99,-0.100000,,2013-03-24 10:22:00,
2013-03-24 06:32:00,21.0,18.0,30.18,East,92,2.0,3.0,89,-99.99,,,-99.99,0.000000,,2013-03-24 10:32:00,
2013-03-24 06:41:00,21.0,18.0,30.18,NE,34,3.0,3.0,88,-99.99,,,-99.99,-0.100000,,2013-03-24 10:41:00,
2013-03-24 06:52:00,20.0,17.0,30.18,NE,46,2.0,2.0,88,-99.99,,,-99.99,0.000000,,2013-03-24 10:52:00,
2013-03-24 07:02:00,20.0,17.0,30.18,South,187,1.0,2.0,88,-99.99,,,-99.99,-0.300000,,2013-03-24 11:02:00,
2013-03-24 07:11:00,21.0,18.0,30.18,East,85,2.0,3.0,88,-99.99,,,-99.99,0.100000,,2013-03-24 11:11:00,
2013-03-24 07:21:00,20.0,17.0,30.18,East,100,3.0,3.0,87,-99.99,,,-99.99,-0.100000,,2013-03-24 11:21:00,
2013-03-24 07:32:00,19.0,16.0,30.18,East,87,3.0,4.0,87,-99.99,,,-99.99,0.000000,,2013-03-24 11:32:00,
2013-03-24 07:42:00,18.0,15.0,30.18,East,81,2.0,3.0,86,-99.99,,,-99.99,-0.600000,,2013-03-24 11:42:00,
2013-03-24 07:51:00,18.0,16.0,30.19,North,5,4.0,4.0,90,-99.99,,,-99.99,0.000000,,2013-03-24 11:51:00,
2013-03-24 08:02:00,18.0,16.0,30.19,North,3,4.0,5.0,89,-99.99,,,-99.99,-0.200000,,2013-03-24 12:02:00,
2013-03-24 08:11:00,19.0,16.0,30.19,NE,47,3.0,4.0,88,-99.99,,,-99.99,0.100000,,2013-03-24 12:11:00,
2013-03-24 08:21:00,19.0,16.0,30.19,East,81,3.0,4.0,87,-99.99,,,-99.99,-0.100000,,2013-03-24 12:21:00,
2013-03-24 08:32:00,18.0,15.0,30.19,East,89,3.0,4.0,86,-99.99,,,-99.99,-0.300000,,2013-03-24 12:32:00,
2013-03-24 08:41:00,18.0,15.0,30.19,East,100,4.0,4.0,87,-99.99,,,-99.99,0.100000,,2013-03-24 12:41:00,
2013-03-24 08:51:00,17.0,14.0,30.19,ESE,121,2.0,3.0,84,-99.99,,,-99.99,-0.100000,,2013-03-24 12:51:00,
2013-03-24 09:01:00,17.0,13.0,30.19,East,79,2.0,4.0,85,-99.99,,,-99.99,-0.100000,,2013-03-24 13:01:00,
2013-03-24 09:11:00,18.0,15.0,30.20,NE,35,5.0,6.0,87,-99.99,,,-99.99,-0.100000,,2013-03-24 13:11:00,
2013-03-24 09:21:00,18.0,15.0,30.20,ENE,72,2.0,4.0,87,-99.99,,,-99.99,0.000000,,2013-03-24 13:21:00,
2013-03-24 09:32:00,18.0,15.0,30.20,NE,56,4.0,5.0,88,-99.99,,,-99.99,0.100000,,2013-03-24 13:32:00,
2013-03-24 09:41:00,17.0,14.0,30.20,NE,48,3.0,4.0,87,-99.99,,,-99.99,2.000000,,2013-03-24 13:41:00,
2013-03-24 09:51:00,17.0,14.0,30.20,ENE,67,2.0,2.0,88,-99.99,,,-99.99,7.300000,,2013-03-24 13:51:00,
2013-03-24 10:01:00,17.0,14.0,30.20,ENE,76,2.0,3.0,88,-99.99,,,-99.99,16.200001,,2013-03-24 14:01:00,
2013-03-24 10:11:00,15.0,13.0,30.21,NNE,33,2.0,2.0,88,-99.99,,,-99.99,22.000000,,2013-03-24 14:11:00,
2013-03-24 10:21:00,17.0,14.0,30.21,NE,35,2.0,2.0,90,-99.99,,,-99.99,28.000000,,2013-03-24 14:21:00,
2013-03-24 10:32:00,16.0,14.0,30.21,NE,46,2.0,2.0,89,-99.99,,,-99.99,43.799999,,2013-03-24 14:32:00,
2013-03-24 10:42:00,15.0,13.0,30.21,SE,131,2.0,2.0,89,-99.99,,,-99.99,68.599998,,2013-03-24 14:42:00,
2013-03-24 10:51:00,17.0,14.0,30.21,ESE,121,3.0,4.0,89,-99.99,,,-99.99,78.599998,,2013-03-24 14:51:00,
2013-03-24 11:01:00,17.0,14.0,30.21,East,101,2.0,3.0,89,-99.99,,,-99.99,111.400002,,2013-03-24 15:01:00,
2013-03-24 11:11:00,17.0,14.0,30.21,NNE,30,3.0,4.0,89,-99.99,,,-99.99,138.600006,,2013-03-24 15:11:00,
2013-03-24 11:21:00,18.0,15.0,30.22,NNE,29,4.0,5.0,87,-99.99,,,-99.99,202.500000,,2013-03-24 15:21:00,
2013-03-24 11:32:00,20.0,16.0,30.22,NE,34,2.0,3.0,85,-99.99,,,-99.99,246.199997,,2013-03-24 15:32:00,
2013-03-24 11:42:00,21.0,16.0,30.22,NNE,32,4.0,5.0,83,-99.99,,,-99.99,278.200012,,2013-03-24 15:42:00,
2013-03-24 11:52:00,22.0,17.0,30.22,NE,34,5.0,8.0,80,-99.99,,,-99.99,314.799988,,2013-03-24 15:52:00,
2013-03-24 12:02:00,22.0,16.0,30.23,NE,43,7.0,10.0,77,-99.99,,,-99.99,348.899994,,2013-03-24 16:02:00,
2013-03-24 12:12:00,22.0,17.0,30.23,NE,39,7.0,9.0,78,-99.99,,,-99.99,388.799988,,2013-03-24 16:12:00,
2013-03-24 12:22:00,23.0,17.0,30.23,NE,41,7.0,9.0,78,-99.99,,,-99.99,433.700012,,2013-03-24 16:22:00,
2013-03-24 12:32:00,23.0,18.0,30.23,NE,43,7.0,9.0,79,-99.99,,,-99.99,477.200012,,2013-03-24 16:32:00,
2013-03-24 12:42:00,24.0,19.0,30.24,NE,47,7.0,9.0,79,-99.99,,,-99.99,528.000000,,2013-03-24 16:42:00,
2013-03-24 12:52:00,25.0,19.0,30.24,NNE,30,6.0,9.0,80,-99.99,,,-99.99,574.000000,,2013-03-24 16:52:00,
2013-03-24 13:02:00,25.0,19.0,30.24,NE,41,7.0,10.0,78,-99.99,,,-99.99,624.099976,,2013-03-24 17:02:00,
2013-03-24 13:11:00,25.0,19.0,30.24,NE,52,8.0,11.0,77,-99.99,,,-99.99,620.599976,,2013-03-24 17:11:00,
2013-03-24 13:22:00,26.0,19.0,30.24,ENE,63,7.0,10.0,75,-99.99,,,-99.99,652.500000,,2013-03-24 17:22:00,
2013-03-24 13:32:00,26.0,19.0,30.24,NE,53,6.0,9.0,73,-99.99,,,-99.99,680.799988,,2013-03-24 17:32:00,
2013-03-24 13:41:00,27.0,19.0,30.24,ENE,58,5.0,8.0,72,-99.99,,,-99.99,710.500000,,2013-03-24 17:41:00,
2013-03-24 13:52:00,27.0,19.0,30.24,NE,36,4.0,8.0,72,-99.99,,,-99.99,751.000000,,2013-03-24 17:52:00,
2013-03-24 14:02:00,27.0,19.0,30.25,NE,39,6.0,9.0,72,-99.99,,,-99.99,406.399994,,2013-03-24 18:02:00,
2013-03-24 14:11:00,28.0,20.0,30.25,NE,46,6.0,9.0,72,-99.99,,,-99.99,857.000000,,2013-03-24 18:11:00,
2013-03-24 14:21:00,29.0,20.0,30.25,ENE,68,7.0,11.0,70,-99.99,,,-99.99,902.000000,,2013-03-24 18:21:00,
2013-03-24 14:32:00,29.0,20.0,30.25,NE,53,6.0,10.0,69,-99.99,,,-99.99,895.000000,,2013-03-24 18:32:00,
2013-03-24 14:42:00,29.0,20.0,30.25,NE,46,5.0,9.0,67,-99.99,,,-99.99,699.700012,,2013-03-24 18:42:00,
2013-03-24 14:51:00,29.0,19.0,30.24,NE,44,6.0,9.0,64,-99.99,,,-99.99,910.000000,,2013-03-24 18:51:00,
2013-03-24 15:02:00,30.0,19.0,30.24,North,7,6.0,10.0,61,-99.99,,,-99.99,891.000000,,2013-03-24 19:02:00,
2013-03-24 15:11:00,30.0,16.0,30.24,NE,53,6.0,9.0,56,-99.99,,,-99.99,922.000000,,2013-03-24 19:11:00,
2013-03-24 15:21:00,30.0,15.0,30.24,East,95,3.0,5.0,53,-99.99,,,-99.99,982.000000,,2013-03-24 19:21:00,
2013-03-24 15:31:00,32.0,15.0,30.24,NNE,25,8.0,11.0,50,-99.99,,,-99.99,986.000000,,2013-03-24 19:31:00,
2013-03-24 15:42:00,31.0,15.0,30.24,North,4,6.0,11.0,49,-99.99,,,-99.99,1002.000000,,2013-03-24 19:42:00,
2013-03-24 15:52:00,30.0,12.0,30.24,North,5,6.0,11.0,46,-99.99,,,-99.99,200.300003,,2013-03-24 19:52:00,
2013-03-24 16:01:00,31.0,15.0,30.23,NNE,12,7.0,10.0,50,-99.99,,,-99.99,200.100006,,2013-03-24 20:01:00,
2013-03-24 16:11:00,31.0,14.0,30.23,North,355,8.0,13.0,47,-99.99,,,-99.99,948.000000,,2013-03-24 20:11:00,
2013-03-24 16:21:00,32.0,9.0,30.23,NNW,337,5.0,8.0,38,-99.99,,,-99.99,929.000000,,2013-03-24 20:21:00,
2013-03-24 16:32:00,33.0,9.0,30.23,NNW,348,7.0,13.0,36,-99.99,,,-99.99,936.000000,,2013-03-24 20:32:00,
2013-03-24 16:52:00,32.0,6.0,30.23,NNE,13,4.0,8.0,33,-99.99,,,-99.99,942.000000,,2013-03-24 20:52:00,
2013-03-24 17:02:00,32.0,7.0,30.23,NNE,26,6.0,9.0,34,-99.99,,,-99.99,960.000000,,2013-03-24 21:02:00,
2013-03-24 17:11:00,32.0,5.0,30.22,NNE,12,3.0,7.0,31,-99.99,,,-99.99,563.599976,,2013-03-24 21:11:00,
2013-03-24 17:22:00,33.0,6.0,30.22,NW,323,3.0,5.0,30,-99.99,,,-99.99,1031.000000,,2013-03-24 21:22:00,
2013-03-24 17:32:00,33.0,13.0,30.22,NNE,17,7.0,10.0,42,-99.99,,,-99.99,305.399994,,2013-03-24 21:32:00,
2013-03-24 17:42:00,32.0,12.0,30.22,NNE,13,6.0,8.0,44,-99.99,,,-99.99,230.899994,,2013-03-24 21:42:00,
2013-03-24 17:52:00,31.0,11.0,30.22,NNW,343,5.0,6.0,43,-99.99,,,-99.99,214.800003,,2013-03-24 21:52:00,
2013-03-24 18:02:00,32.0,10.0,30.22,NW,317,2.0,4.0,40,-99.99,,,-99.99,620.900024,,2013-03-24 22:02:00,
2013-03-24 18:12:00,33.0,7.0,30.22,SSE,149,4.0,6.0,33,-99.99,,,-99.99,724.099976,,2013-03-24 22:12:00,
2013-03-24 18:22:00,34.0,10.0,30.21,North,1,8.0,12.0,36,-99.99,,,-99.99,745.000000,,2013-03-24 22:22:00,
2013-03-24 18:32:00,33.0,6.0,30.21,NE,51,5.0,7.0,31,-99.99,,,-99.99,598.799988,,2013-03-24 22:32:00,
2013-03-24 18:42:00,32.0,6.0,30.21,North,3,6.0,9.0,32,-99.99,,,-99.99,135.300003,,2013-03-24 22:42:00,
2013-03-24 18:52:00,33.0,4.0,30.21,NNE,23,4.0,8.0,29,-99.99,,,-99.99,643.599976,,2013-03-24 22:52:00,
2013-03-24 19:02:00,33.0,4.0,30.21,NW,315,6.0,10.0,28,-99.99,,,-99.99,621.799988,,2013-03-24 23:02:00,
2013-03-24 19:11:00,33.0,4.0,30.21,WNW,284,5.0,7.0,29,-99.99,,,-99.99,411.000000,,2013-03-24 23:11:00,
2013-03-24 19:22:00,33.0,5.0,30.21,North,353,4.0,8.0,29,-99.99,,,-99.99,543.400024,,2013-03-24 23:22:00,
2013-03-24 19:32:00,34.0,6.0,30.21,ENE,67,8.0,11.0,30,-99.99,,,-99.99,506.299988,,2013-03-24 23:32:00,
2013-03-24 19:41:00,34.0,5.0,30.21,SE,133,4.0,8.0,29,-99.99,,,-99.99,468.100006,,2013-03-24 23:41:00,
2013-03-24 19:52:00,35.0,5.0,30.21,NE,50,7.0,12.0,28,-99.99,,,-99.99,432.700012,,2013-03-24 23:52:00,
2013-03-24 20:02:00,34.0,3.0,30.21,NNE,20,5.0,7.0,26,-99.99,,,-99.99,397.500000,,2013-03-25 00:02:00,
2013-03-24 20:11:00,34.0,2.0,30.20,ENE,63,4.0,6.0,25,-99.99,,,-99.99,363.899994,,2013-03-25 00:11:00,
2013-03-24 20:22:00,33.0,3.0,30.20,South,175,2.0,3.0,27,-99.99,,,-99.99,329.700012,,2013-03-25 00:22:00,
2013-03-24 20:32:00,34.0,5.0,30.20,NE,42,5.0,7.0,28,-99.99,,,-99.99,295.100006,,2013-03-25 00:32:00,
2013-03-24 20:42:00,33.0,4.0,30.20,NE,52,3.0,6.0,29,-99.99,,,-99.99,260.399994,,2013-03-25 00:42:00,
2013-03-24 20:52:00,34.0,5.0,30.20,NNE,32,5.0,8.0,29,-99.99,,,-99.99,225.399994,,2013-03-25 00:52:00,
2013-03-24 21:01:00,34.0,5.0,30.20,ENE,68,5.0,7.0,29,-99.99,,,-99.99,191.699997,,2013-03-25 01:01:00,
2013-03-24 21:21:00,33.0,4.0,30.20,NE,47,5.0,7.0,29,-99.99,,,-99.99,78.000000,,2013-03-25 01:21:00,
2013-03-24 21:32:00,32.0,4.0,30.20,ENE,64,6.0,8.0,30,-99.99,,,-99.99,62.500000,,2013-03-25 01:32:00,
2013-03-24 21:42:00,32.0,5.0,30.19,East,98,6.0,8.0,31,-99.99,,,-99.99,19.799999,,2013-03-25 01:42:00,
2013-03-24 21:52:00,31.0,3.0,30.19,East,88,5.0,6.0,30,-99.99,,,-99.99,10.600000,,2013-03-25 01:52:00,
2013-03-24 22:01:00,31.0,4.0,30.19,East,90,4.0,4.0,31,-99.99,,,-99.99,5.400000,,2013-03-25 02:01:00,
2013-03-24 22:11:00,29.0,13.0,30.20,SE,140,4.0,5.0,51,-99.99,,,-99.99,1.900000,,2013-03-25 02:11:00,
2013-03-24 22:21:00,29.0,10.0,30.20,SSE,162,4.0,5.0,44,-99.99,,,-99.99,0.400000,,2013-03-25 02:21:00,
2013-03-24 22:32:00,28.0,9.0,30.20,SSE,167,3.0,4.0,43,-99.99,,,-99.99,0.000000,,2013-03-25 02:32:00,
2013-03-24 22:42:00,27.0,10.0,30.20,SSE,164,4.0,6.0,46,-99.99,,,-99.99,-0.100000,,2013-03-25 02:42:00,
2013-03-24 22:51:00,27.0,10.0,30.20,SSE,158,4.0,4.0,48,-99.99,,,-99.99,-0.100000,,2013-03-25 02:51:00,
2013-03-24 23:01:00,27.0,12.0,30.20,SSE,148,4.0,4.0,52,-99.99,,,-99.99,-0.100000,,2013-03-25 03:01:00,
2013-03-24 23:11:00,26.0,14.0,30.20,SE,141,4.0,4.0,58,-99.99,,,-99.99,-0.100000,,2013-03-25 03:11:00,
2013-03-24 23:21:00,26.0,15.0,30.20,SE,135,3.0,4.0,63,-99.99,,,-99.99,-0.100000,,2013-03-25 03:21:00,
2013-03-24 23:32:00,26.0,16.0,30.20,SE,138,4.0,4.0,65,-99.99,,,-99.99,-0.200000,,2013-03-25 03:32:00,
2013-03-24 23:42:00,25.0,16.0,30.20,SE,124,4.0,5.0,68,-99.99,,,-99.99,-0.100000,,2013-03-25 03:42:00,
2013-03-24 23:52:00,24.0,14.0,30.20,SE,124,3.0,4.0,64,-99.99,,,-99.99,-0.100000,,2013-03-25 03:52:00,